Theta_e
303 297 294 295 298 297 298 298 299 300 301 302 312 314 314 313 315 321 325 328 331 325 323 323 322 320 323 327 329 332 333 332 331 329 328 328 329 330 331 331 332 332 332 335 336 337 339 341 342 342 344 345 347 348 349 349 350 350 351 351 350 351 350 350 348 349 348 347 347 348 348 347 349 350 354 356 357 359 359 360 359 360 360 361 364 364
303 296 296 297 299 299 299 298 299 299 298 297 305 312 311 313 311 319 323 328 331 324 321 324 322 321 324 328 330 332 331 329 329 328 327 328 329 330 330 330 331 332 333 334 335 337 339 341 342 341 342 346 344 346 348 348 349 350 351 350 351 350 349 349 349 350 349 348 348 347 347 348 349 352 354 353 355 358 360 361 361 362 362 363 364 365
296 295 298 299 300 299 298 298 298 300 298 297 296 302 309 310 318 323 325 328 330 324 318 322 319 321 325 327 330 330 329 331 332 330 329 328 328 328 329 330 330 330 330 333 335 336 338 340 341 340 340 343 345 346 347 348 348 349 349 350 350 349 349 349 350 350 348 349 351 350 349 349 350 354 356 355 357 360 360 361 362 363 362 363 363 363
294 295 298 299 298 298 297 296 296 296 296 295 294 301 305 313 315 312 321 323 323 320 319 321 319 320 326 328 327 329 331 332 334 334 332 331 329 328 329 330 330 329 329 331 333 335 337 339 340 339 339 341 343 345 346 347 347 348 350 349 349 349 349 349 351 353 350 351 351 350 352 352 353 352 358 357 358 359 360 360 362 363 362 363 363 363
293 298 300 299 298 298 296 295 295 295 294 293 296 293 304 313 315 317 319 321 322 323 324 322 318 318 322 322 323 327 332 332 333 334 333 335 335 333 332 329 330 329 329 331 333 335 335 337 339 339 338 340 341 343 345 346 347 348 348 349 349 349 349 350 355 352 350 353 349 351 352 355 353 353 352 353 353 356 359 360 360 361 362 363 363 363
296 299 299 298 297 297 296 294 294 294 293 290 293 296 308 318 316 319 320 318 316 315 320 319 307 310 320 321 321 325 327 327 331 329 329 330 333 333 329 328 330 330 330 332 332 334 335 337 338 339 338 338 340 342 345 346 347 348 348 349 348 349 349 349 352 351 351 351 347 347 347 346 346 346 347 348 349 352 355 358 360 362 362 362 362 362
297 300 300 298 297 295 296 295 295 296 290 292 293 296 313 319 319 319 317 316 309 309 318 321 305 300 313 317 320 324 324 325 329 328 329 330 332 331 329 329 329 328 328 332 333 334 334 336 337 337 337 338 339 342 345 346 347 348 348 348 348 348 349 350 352 350 353 348 346 347 347 347 346 346 347 350 353 354 356 359 359 360 362 362 362 362
299 299 297 297 297 295 294 294 295 295 292 290 294 296 315 318 319 318 317 315 311 321 321 319 307 301 304 313 322 323 322 324 325 327 328 329 330 331 330 330 331 329 328 330 331 333 334 335 336 336 337 337 339 342 344 345 346 346 347 348 348 349 350 350 351 350 352 347 346 346 346 348 346 347 347 349 351 355 358 357 358 359 360 361 362 361
298 297 297 296 296 294 293 294 296 296 293 292 296 310 317 320 320 319 317 310 314 314 309 314 312 302 300 307 320 320 319 321 323 324 326 328 329 330 330 330 332 333 328 329 329 331 333 334 336 337 337 338 340 342 343 344 345 346 347 348 348 348 350 350 351 350 350 350 346 346 346 347 348 348 348 352 355 355 358 354 355 357 359 360 361 360
299 299 297 298 295 293 295 296 297 297 296 298 299 318 320 321 319 317 310 311 310 305 304 311 312 298 295 311 316 319 318 319 322 324 326 328 329 330 330 331 333 335 329 328 330 331 333 335 336 337 338 338 339 342 344 344 345 346 346 348 347 347 348 349 351 351 349 350 349 345 345 346 346 350 349 350 350 352 354 353 353 354 356 357 358 359
299 310 310 298 296 297 297 298 298 298 299 302 314 315 313 312 309 309 307 308 304 298 302 312 313 302 295 308 315 314 316 320 323 325 328 329 330 331 331 331 332 335 331 327 328 330 332 335 336 337 336 338 339 341 343 343 344 345 346 347 346 347 348 349 350 350 349 349 347 345 345 346 346 346 346 346 347 350 351 351 351 352 354 356 356 358
297 298 299 300 305 301 300 298 299 300 300 301 302 309 310 305 309 304 302 305 299 298 302 312 313 308 296 297 315 321 323 325 324 325 326 328 329 330 331 331 333 335 333 329 327 328 331 333 334 335 335 337 338 340 341 342 344 345 346 346 346 346 347 348 349 349 349 349 348 347 345 345 346 346 346 346 346 348 349 350 350 352 353 353 355 357
292 295 295 298 311 302 297 296 294 297 297 297 307 309 302 292 299 296 297 296 295 297 301 308 313 306 305 304 312 320 322 325 327 328 329 329 330 331 331 331 333 336 335 331 327 328 330 331 331 332 334 336 337 338 340 342 343 344 345 346 345 345 347 347 348 348 349 349 348 347 346 346 347 347 347 346 346 347 349 349 350 350 351 352 353 354
289 292 296 297 300 304 298 294 289 291 292 295 304 302 297 293 294 291 291 293 292 299 304 310 313 304 304 307 312 314 320 326 328 329 332 331 332 332 332 332 335 336 336 335 328 328 329 330 331 332 334 336 337 338 340 341 343 344 345 345 345 345 346 347 347 347 347 349 349 348 347 346 349 347 347 347 346 347 348 349 350 350 350 351 352 353
286 288 292 296 293 299 299 298 294 289 291 293 302 307 300 300 296 290 291 291 294 294 303 311 306 297 302 303 316 318 320 325 329 331 332 332 333 334 334 335 337 338 339 339 330 328 329 330 331 332 333 335 337 338 339 341 342 343 344 344 345 344 345 347 346 346 347 348 349 348 349 347 348 348 348 347 348 348 348 349 350 350 351 351 352 353
289 287 291 298 301 299 298 299 298 294 293 293 299 307 303 301 302 297 297 296 294 298 301 304 301 303 303 314 320 322 322 324 330 330 332 332 334 334 334 336 336 336 337 338 337 330 330 331 332 332 333 335 336 337 338 340 341 342 343 344 345 344 345 346 347 346 347 347 349 348 349 348 350 353 350 349 351 350 350 350 350 350 351 352 353 355
290 288 295 296 298 299 300 300 299 299 290 293 300 296 300 308 304 295 300 300 301 298 299 304 302 305 310 314 319 323 324 325 327 329 330 331 333 332 332 334 335 336 337 339 339 337 331 331 332 333 333 334 336 336 337 339 341 342 343 344 344 344 345 346 347 346 347 347 348 347 348 349 350 351 349 348 349 349 351 352 351 351 352 353 354 354
288 288 292 295 296 299 299 300 300 301 298 295 291 297 299 302 302 298 291 290 291 290 294 303 301 300 300 300 314 320 321 324 325 327 329 330 331 331 331 332 334 336 337 339 341 340 338 334 332 333 334 334 335 336 337 339 342 342 343 344 344 344 343 345 346 346 347 347 347 347 347 349 351 351 351 350 350 350 351 353 353 353 353 353 355 356
292 286 289 294 296 299 300 301 299 302 302 298 296 301 298 293 295 293 295 288 289 289 291 297 302 302 299 301 309 315 317 321 324 326 328 328 330 330 330 332 334 336 337 338 340 340 341 338 336 333 334 335 336 338 337 339 342 343 344 346 346 344 345 345 346 347 348 348 347 348 348 348 349 352 353 352 352 352 351 351 353 353 354 354 356 358
293 288 287 294 296 298 297 297 291 294 301 300 300 298 298 295 292 293 294 294 296 289 292 293 297 296 304 303 315 317 319 322 325 326 327 329 330 331 331 332 333 335 336 338 339 338 342 343 342 340 337 336 337 338 338 339 341 342 344 345 346 349 349 347 347 348 347 348 348 348 349 349 349 351 353 353 353 352 352 352 352 354 353 354 356 356
293 294 286 291 294 296 294 293 293 294 293 296 294 295 297 295 298 296 294 297 294 292 290 291 291 296 301 310 315 317 319 324 327 327 328 329 330 331 332 333 334 335 336 338 339 341 343 345 346 345 344 342 344 345 343 342 343 345 346 345 347 346 348 348 348 348 348 349 349 350 348 349 349 349 352 353 353 354 353 353 354 353 355 356 355 356
293 290 290 290 289 289 290 294 295 294 297 296 293 293 292 290 292 291 289 297 300 295 291 292 289 295 303 319 318 319 322 324 327 327 327 329 330 331 332 333 334 335 337 339 341 342 344 345 345 345 345 346 344 344 345 347 347 345 345 345 345 344 349 350 349 349 349 350 350 350 350 350 350 350 351 351 352 353 354 354 354 354 355 353 355 355
296 292 295 290 290 292 297 298 298 298 296 294 293 293 292 292 292 288 285 291 299 300 302 296 294 298 311 317 320 322 324 324 325 326 327 328 328 329 332 333 332 334 337 339 342 344 344 344 345 345 344 344 344 343 344 347 346 346 346 346 346 345 346 351 351 351 351 351 351 351 352 352 351 351 351 351 351 352 353 354 354 355 354 353 353 355
312 292 291 295 293 294 295 295 298 296 294 294 293 291 292 293 293 290 288 295 298 299 296 294 293 297 311 319 320 320 322 322 323 326 324 324 325 327 326 327 329 332 336 340 341 341 340 341 342 342 342 343 343 343 344 346 347 346 346 346 346 346 347 350 351 351 351 351 351 352 352 351 351 351 351 351 351 351 352 352 353 354 353 353 354 353
294 293 292 289 286 288 289 291 295 297 296 292 292 292 294 294 297 295 299 299 299 299 298 296 291 296 308 317 319 320 321 320 320 322 323 322 323 324 325 326 327 329 333 336 337 337 337 337 337 339 341 341 343 344 344 344 344 345 344 345 346 346 348 349 350 349 350 351 351 351 350 350 351 350 351 351 352 351 351 350 350 351 353 352 352 353
296 295 291 284 282 282 282 281 285 288 290 293 295 293 295 300 301 301 299 296 291 298 298 294 293 301 314 317 317 319 319 318 320 321 322 323 322 322 323 325 326 328 328 330 330 330 329 331 333 336 338 341 344 343 342 342 344 345 345 346 347 348 348 349 350 349 349 350 351 350 350 350 350 350 350 351 351 351 350 349 348 347 350 351 351 352
298 299 295 291 286 286 287 288 292 302 289 290 293 293 294 293 300 297 295 293 293 296 298 296 300 306 310 313 314 316 318 317 318 319 319 319 319 320 321 323 324 325 326 326 325 326 327 329 331 334 337 339 341 343 343 342 343 344 345 346 348 349 348 348 348 349 348 348 349 350 349 350 349 348 348 350 351 352 352 351 350 348 346 349 349 348
299 295 296 296 295 294 294 294 294 301 293 294 293 294 297 297 297 297 295 292 297 301 293 296 305 306 309 313 314 315 317 318 318 318 318 317 317 318 319 321 323 322 323 324 324 324 325 327 328 329 330 333 336 340 343 344 344 344 345 345 346 347 349 349 349 348 347 347 348 348 348 347 347 346 343 346 347 350 352 353 352 352 351 350 349 349
296 295 301 298 293 294 295 294 294 295 295 295 295 295 296 300 299 298 298 299 300 296 295 299 306 306 310 314 315 316 318 318 318 316 317 316 316 316 317 319 319 319 320 321 322 323 325 325 325 327 328 330 334 336 339 342 343 344 345 345 345 347 348 349 348 347 346 344 344 344 345 345 346 345 345 346 345 346 348 350 352 352 352 352 351 350
295 295 302 297 295 294 295 295 294 295 296 296 296 296 296 301 305 304 304 305 304 299 298 303 307 306 311 315 316 317 319 319 317 317 315 314 315 315 314 315 317 317 318 319 320 323 324 325 325 326 328 329 331 333 336 338 340 341 342 343 345 346 348 347 345 344 343 342 343 346 346 346 347 347 347 346 345 346 346 348 349 351 351 351 351 352
295 295 306 300 292 291 294 297 295 293 295 296 296 297 297 298 300 304 305 307 307 305 306 307 306 305 310 317 317 318 319 317 316 315 313 313 313 313 312 313 313 314 315 317 318 319 320 322 324 327 327 329 330 332 334 336 338 341 343 342 343 344 345 345 344 345 345 344 344 346 347 346 346 346 346 347 347 347 347 348 348 348 350 353 353 353
295 291 297 296 291 291 293 294 294 295 295 297 295 296 296 297 298 297 300 305 302 301 303 305 303 303 310 316 317 317 316 315 313 312 312 312 312 312 311 311 311 312 314 315 317 318 320 321 324 325 325 326 329 331 332 332 335 337 338 340 341 342 344 343 342 342 342 344 345 345 344 345 345 345 345 346 345 346 347 349 349 348 348 351 351 352
293 290 291 292 290 290 293 294 293 293 293 292 292 295 296 298 301 300 305 307 306 307 304 302 301 307 313 316 313 313 314 313 312 312 311 311 311 310 310 310 311 312 313 314 316 317 319 320 320 320 319 321 324 326 330 330 329 329 331 332 334 336 335 336 338 338 339 340 341 342 343 343 343 344 344 345 345 346 346 346 346 347 349 351 353 353
294 289 288 291 288 289 293 293 293 289 286 287 298 300 300 301 303 302 301 303 305 306 305 306 307 311 314 314 312 311 312 312 313 313 314 311 309 309 310 310 311 312 313 313 314 315 317 318 318 319 321 323 326 328 329 332 329 330 331 330 330 329 329 328 329 330 331 332 334 337 340 342 342 341 342 343 343 343 343 342 341 342 345 344 345 346
293 289 289 288 288 289 292 292 289 282 285 297 300 302 302 303 302 305 304 305 305 306 309 309 311 312 312 314 314 313 313 313 314 312 312 312 311 310 310 311 311 312 312 313 314 315 316 317 319 321 322 322 323 324 326 327 328 329 326 325 323 323 323 322 323 323 323 325 327 330 333 335 335 336 338 340 340 338 337 338 339 340 343 342 341 341
290 288 290 288 286 289 288 286 281 283 294 299 301 302 305 298 296 304 305 305 306 306 307 304 304 307 310 311 312 312 311 311 311 312 311 312 312 311 311 310 311 312 312 314 314 315 316 317 319 320 320 324 322 321 321 321 321 321 321 323 322 322 322 323 323 323 324 323 325 326 328 328 328 328 328 329 330 332 334 337 338 339 343 342 343 343
292 288 286 285 287 284 287 288 288 293 294 295 296 299 299 293 293 294 296 301 307 308 306 304 304 306 307 308 309 309 310 310 307 306 309 310 311 312 312 311 312 313 314 315 314 314 317 319 319 320 321 320 320 320 320 321 321 320 320 320 320 320 321 321 321 322 323 323 324 326 326 326 325 326 325 326 326 326 328 331 334 339 343 342 343 342
290 290 288 284 286 285 284 283 285 287 283 288 297 301 303 303 301 299 302 299 306 309 309 306 305 305 306 307 308 309 310 306 302 304 308 309 309 308 308 309 310 311 311 313 315 316 317 318 319 321 319 319 319 320 321 321 320 318 318 317 318 318 318 318 319 321 322 322 323 324 325 326 325 324 324 324 325 326 327 328 331 333 338 339 340 341
292 289 286 285 284 282 283 281 282 284 288 294 296 300 302 300 298 300 298 293 302 308 308 307 306 306 307 307 307 309 307 302 301 303 307 308 307 308 308 308 309 310 311 313 314 314 315 316 318 319 320 319 318 319 320 319 318 317 317 317 317 317 317 317 319 319 320 321 322 322 323 324 325 323 323 323 324 326 326 327 327 329 333 336 339 340
290 288 285 284 285 285 280 280 281 285 290 298 300 301 302 301 301 294 286 288 300 306 309 307 306 306 307 308 308 306 305 301 301 304 308 307 306 307 307 307 308 309 310 312 314 316 318 320 318 317 317 317 318 319 319 319 318 319 316 316 316 316 316 317 318 319 320 321 321 322 323 323 324 324 323 323 324 325 325 327 326 327 328 330 332 336
286 285 283 282 283 286 288 280 283 286 296 300 301 302 303 305 296 285 280 290 299 304 310 309 308 309 309 308 309 306 304 306 308 307 306 305 305 305 307 308 309 310 310 312 315 318 314 314 315 314 315 316 317 318 318 317 316 316 316 315 315 315 316 317 319 320 319 320 320 320 321 322 322 322 323 323 323 324 324 325 325 325 325 326 326 327
280 286 286 281 282 282 281 281 281 283 289 296 301 303 303 299 289 284 291 297 300 304 308 310 308 309 310 309 310 308 306 307 308 306 305 305 305 305 307 308 309 311 313 317 318 315 313 313 313 313 313 315 316 316 316 316 316 315 314 314 314 314 316 318 318 318 317 317 319 320 320 320 321 321 322 323 322 320 320 322 323 324 322 323 323 324
286 282 281 282 284 282 279 279 278 278 292 300 301 299 302 293 291 294 298 300 303 302 307 310 310 311 311 309 309 307 307 308 307 306 305 305 305 306 307 309 310 310 310 310 312 315 313 312 311 311 312 313 314 315 315 315 314 314 314 313 314 315 317 318 316 316 316 317 317 319 320 320 319 319 320 321 321 319 319 320 321 321 322 321 321 322
288 282 280 280 284 279 280 279 281 285 290 296 299 294 300 301 302 300 301 300 301 302 305 309 310 311 311 310 308 308 308 309 309 308 306 305 306 308 309 309 309 309 309 311 311 312 313 311 311 311 312 313 314 314 315 315 314 315 313 312 315 317 319 316 314 314 315 317 316 316 318 318 317 317 317 318 319 319 318 318 320 320 320 319 320 320
290 289 283 285 288 286 285 283 287 289 294 296 299 299 298 302 303 304 301 301 302 303 307 310 309 305 308 309 308 307 306 309 306 305 305 306 307 307 308 309 309 309 309 309 310 313 311 309 309 309 310 311 313 313 313 314 314 313 311 312 317 317 316 316 316 314 313 313 314 316 316 317 315 315 316 316 317 317 317 317 318 318 318 319 318 319
296 294 291 292 290 293 293 294 296 297 297 300 300 301 300 301 302 302 302 301 301 302 305 310 306 306 306 306 304 304 304 303 304 304 305 305 306 307 309 308 309 310 310 310 309 310 309 308 308 309 308 309 310 311 312 310 311 311 311 313 315 315 316 316 315 314 313 314 315 314 315 315 314 314 315 316 316 317 318 316 316 317 317 316 317 318
292 295 293 292 293 288 286 291 295 298 298 299 300 301 302 302 301 302 302 301 301 303 307 307 307 307 307 308 306 305 305 305 304 305 306 306 306 306 307 308 308 309 308 308 309 310 307 308 308 308 309 307 308 308 308 309 311 312 313 313 313 315 316 315 314 314 312 311 313 315 316 316 316 314 314 314 314 314 316 316 315 315 316 316 315 316
292 295 292 292 291 289 291 294 297 298 298 300 299 300 300 301 301 301 301 302 303 303 306 307 309 308 309 307 306 306 306 306 305 305 305 306 306 307 307 307 307 307 308 309 309 309 308 307 307 308 308 307 306 307 308 308 308 309 310 311 313 314 315 316 313 310 310 310 312 316 316 315 317 315 312 313 313 312 313 314 314 313 313 313 315 315
295 300 290 291 291 291 293 294 294 297 299 298 299 301 301 301 301 302 301 301 301 301 302 303 305 308 308 307 306 306 305 305 305 305 305 305 306 306 306 307 308 308 308 307 308 308 307 308 308 308 308 306 306 306 307 307 308 308 309 310 312 314 315 314 313 312 310 310 310 313 315 314 313 314 313 312 313 313 314 314 312 313 314 315 319 317
296 292 293 293 290 288 292 293 294 293 291 297 300 301 303 303 302 302 303 303 302 301 300 302 303 305 305 307 307 307 305 306 307 306 305 306 306 306 306 306 307 307 307 307 308 307 309 310 308 308 307 305 305 306 307 306 307 308 309 310 311 314 315 314 312 310 310 312 311 315 314 313 312 312 312 311 311 311 312 314 309 310 313 313 316 313
295 292 291 289 286 286 291 293 294 294 291 293 298 303 301 303 302 303 303 303 303 302 301 302 302 302 304 305 307 307 306 305 305 306 305 305 306 306 307 306 306 306 306 306 305 306 307 308 310 308 307 305 307 308 308 307 306 307 309 310 310 311 312 313 312 311 309 312 312 315 313 312 311 312 311 311 310 310 311 311 313 303 302 306 310 306
Wind_Speed
3 4 6 7 7 4 4 6 6 1 2 5 7 3 6 5 3 2 3 9 11 8 8 7 4 6 5 8 10 11 8 6 5 7 8 8 8 10 10 10 10 10 11 9 9 9 10 9 8 8 8 8 7 7 8 8 7 7 7 7 7 6 6 6 5 5 5 4 4 2 4 4 4 4 3 3 3 3 2 3 3 3 2 2 2 2
4 5 7 6 4 6 6 5 2 2 3 3 6 4 3 3 4 2 3 10 10 8 6 7 8 7 6 8 8 9 11 11 11 10 9 9 7 9 11 11 11 10 6 8 7 8 9 8 8 7 7 7 8 6 7 9 8 7 7 7 6 5 6 6 6 5 5 4 4 4 5 3 4 4 4 4 3 3 3 3 3 3 3 3 2 2
3 7 6 6 5 2 2 3 2 3 2 1 1 3 4 2 3 2 4 8 8 3 3 8 8 6 8 7 7 11 13 10 8 10 11 9 7 8 9 10 9 8 8 9 9 9 9 10 10 8 8 9 10 10 9 8 8 7 7 6 6 6 6 6 6 5 4 3 3 4 4 4 3 2 2 3 3 3 3 3 3 3 3 3 2 2
2 6 9 3 5 6 1 1 3 3 3 3 4 3 4 5 5 0 3 4 7 3 1 7 5 2 5 6 8 9 10 7 6 6 7 5 5 7 10 9 10 10 10 11 11 11 10 10 9 8 8 9 8 8 8 8 9 7 7 6 6 6 6 5 6 6 4 4 3 2 3 4 3 3 3 3 3 3 3 3 3 3 3 3 3 3
5 2 1 5 6 6 5 3 4 3 1 1 3 3 2 4 3 5 7 7 7 3 6 4 4 2 7 9 6 6 8 7 6 5 4 2 2 2 3 5 8 10 11 11 11 10 10 10 11 10 9 8 8 8 9 9 8 7 9 8 8 7 6 6 5 5 5 4 3 3 5 3 4 4 4 4 2 3 3 3 3 4 3 3 3 2
6 6 2 6 2 2 5 3 3 6 1 1 4 6 5 6 6 6 11 11 3 2 7 11 2 5 4 6 8 8 9 12 8 8 9 9 5 3 7 8 6 6 8 12 12 13 12 12 10 9 8 9 9 9 9 9 9 8 8 7 7 6 6 6 6 6 5 6 6 5 5 4 2 3 4 5 6 4 4 5 3 3 3 3 3 2
5 1 4 3 4 3 3 3 3 4 4 1 5 8 7 9 7 11 11 6 5 6 8 6 5 3 1 5 6 9 11 11 10 12 12 10 8 6 7 8 7 8 7 8 10 10 11 11 11 10 9 10 10 10 9 8 9 8 8 8 8 7 6 6 6 7 6 6 6 7 7 6 6 6 4 3 3 5 4 3 4 4 3 4 4 3
1 1 4 3 3 3 3 3 2 6 6 2 1 5 7 10 11 13 13 6 2 5 6 3 2 2 1 6 5 4 11 11 13 14 14 12 10 8 7 8 7 8 9 9 11 13 13 13 13 13 12 10 12 9 8 8 8 9 8 8 8 7 7 6 6 7 7 7 6 6 5 6 6 6 6 6 5 3 3 4 4 3 4 4 4 4
3 1 3 1 1 2 5 3 4 6 5 3 1 7 10 12 10 11 9 5 4 7 4 7 1 1 4 4 8 7 10 13 12 13 16 16 14 9 8 9 9 7 8 10 10 12 13 13 13 13 12 12 9 8 9 10 10 9 8 8 7 7 7 6 7 8 6 7 7 7 6 5 4 4 4 3 3 4 4 5 3 3 3 3 3 3
2 4 4 6 5 5 4 5 8 8 4 5 4 3 5 7 8 6 4 5 2 3 6 9 6 3 5 1 7 8 5 11 15 16 17 17 16 12 9 8 8 6 7 9 11 12 13 13 13 14 13 10 10 10 9 9 7 7 7 8 8 8 7 6 7 7 7 7 6 6 6 7 5 3 2 3 4 4 4 5 4 4 4 3 3 3
4 2 5 4 4 5 5 7 9 8 6 3 8 7 8 8 5 4 6 4 7 1 5 7 7 3 1 6 10 12 12 15 11 9 10 12 14 12 9 10 9 7 8 8 9 10 12 13 13 12 12 12 9 8 9 9 8 8 8 8 9 8 7 7 8 8 8 7 7 6 7 7 6 5 4 4 4 4 4 4 4 4 4 3 3 3
2 2 1 2 7 2 4 1 3 8 6 4 2 4 7 6 6 7 4 5 3 5 2 8 10 3 3 2 6 12 3 7 12 15 14 15 15 13 10 9 9 7 7 8 9 9 8 8 10 11 11 11 11 9 9 9 8 8 8 8 9 7 7 7 8 7 7 7 7 6 7 7 6 6 5 6 6 6 6 5 5 3 3 3 2 2
3 5 3 4 4 10 2 3 1 1 1 5 5 6 8 0 2 1 2 2 3 5 2 2 11 2 8 6 6 12 13 2 12 13 15 16 16 15 12 10 7 6 6 7 8 9 9 10 11 10 10 9 9 11 12 11 10 9 8 9 10 9 8 8 8 8 8 7 7 7 7 6 5 6 6 6 6 6 6 5 5 4 4 3 3 4
6 2 2 5 2 4 7 7 2 2 3 7 7 7 7 4 2 2 2 1 4 5 1 6 5 3 3 5 1 4 10 8 5 11 13 16 15 15 12 8 7 4 5 5 8 10 11 11 11 11 11 12 11 12 12 11 10 9 9 9 11 11 10 8 8 9 8 8 7 7 7 6 6 6 6 6 6 6 6 6 6 6 6 6 6 5
0 1 6 4 3 3 7 7 9 5 6 8 4 8 7 7 5 5 3 4 6 3 1 6 5 4 3 2 3 8 6 7 5 9 12 14 15 13 10 6 8 7 5 5 8 11 12 12 12 12 11 11 12 12 11 10 10 9 9 10 11 11 10 10 10 8 8 7 6 6 6 6 6 6 6 6 7 6 6 6 6 6 5 5 6 6
3 5 7 6 1 6 8 4 6 5 4 2 4 6 7 7 5 7 8 6 4 3 3 2 3 1 2 2 5 4 2 6 9 8 11 13 12 11 9 8 7 7 6 5 5 6 9 10 11 11 11 11 11 11 10 11 10 10 11 11 12 13 12 10 9 8 8 6 5 6 6 6 6 5 6 5 5 6 6 7 7 6 6 6 6 5
1 1 2 6 2 5 7 5 4 7 4 3 5 5 6 7 9 5 2 1 3 4 2 1 5 2 5 1 7 6 5 5 8 10 12 13 14 14 12 8 7 7 6 6 5 5 6 6 8 9 10 10 9 9 11 12 12 13 12 11 12 10 8 10 9 9 7 6 7 7 7 7 6 7 7 7 7 7 6 6 6 6 7 6 5 5
1 6 4 2 3 5 4 7 5 6 7 5 3 8 2 3 4 6 4 1 2 3 2 2 3 4 2 2 4 6 6 3 7 9 12 13 15 15 12 11 9 8 8 6 5 5 7 8 8 7 7 8 10 12 12 12 12 12 12 13 13 10 10 9 8 8 7 8 8 8 8 7 8 7 7 6 7 5 5 5 4 4 4 5 5 5
2 3 3 1 1 2 1 5 2 1 0 10 8 8 8 2 3 1 6 1 3 1 1 2 1 3 4 2 1 2 1 4 4 7 10 11 12 11 14 16 14 11 7 7 7 6 5 6 7 8 9 7 7 8 9 8 7 5 2 1 2 4 5 8 7 7 6 7 7 7 8 9 7 6 6 5 5 5 5 5 5 5 6 5 4 5
1 2 4 2 1 2 2 4 5 3 2 1 4 6 0 5 4 5 5 5 6 3 2 4 1 3 4 4 3 3 2 3 6 7 9 10 10 10 11 11 12 12 10 7 6 6 4 4 4 4 5 6 6 5 5 5 5 6 6 7 7 6 6 5 5 6 8 8 7 6 5 6 6 6 6 5 5 5 6 6 6 6 5 6 4 5
1 0 1 3 2 1 3 1 7 8 6 1 3 0 0 2 2 7 2 2 5 6 4 3 1 5 4 2 3 5 2 4 8 8 7 7 8 8 11 11 11 13 12 9 6 7 6 5 5 6 6 6 6 5 6 7 8 8 7 8 8 9 9 9 8 7 7 6 6 5 7 7 6 7 6 5 5 5 5 5 5 5 6 4 5 5
0 1 1 3 3 1 2 3 2 5 5 8 8 7 7 6 4 5 2 1 2 6 4 5 6 4 3 1 2 3 4 7 7 10 9 9 8 6 5 4 5 7 6 7 7 8 7 7 7 7 6 6 7 7 9 8 8 9 10 10 9 8 7 8 8 9 8 7 7 8 7 7 7 6 5 6 6 6 5 5 5 5 4 5 5 5
1 1 0 2 2 3 1 2 1 3 2 4 5 3 3 2 6 4 4 4 3 1 4 2 2 1 2 2 1 4 7 6 6 8 9 8 8 7 6 5 5 4 5 5 6 6 7 7 7 8 8 7 7 7 7 7 8 8 8 8 8 9 9 9 9 8 8 8 8 8 8 7 7 6 7 7 6 6 6 5 5 5 6 6 5 5
3 3 4 2 5 5 4 3 2 3 2 7 5 2 1 1 2 4 4 7 7 3 2 1 1 1 1 1 4 4 6 7 5 8 9 7 6 7 7 6 6 7 6 6 6 6 6 7 9 9 9 9 8 7 7 6 5 5 5 4 3 6 5 6 7 8 7 8 8 8 7 7 6 7 7 7 6 7 6 5 5 5 5 5 4 5
1 2 1 1 2 3 3 5 7 5 6 4 1 2 0 1 4 3 6 2 6 5 5 8 6 3 1 2 7 7 8 8 7 6 7 10 6 6 7 6 6 8 8 8 8 7 8 7 7 7 7 7 7 7 7 7 6 6 8 9 10 9 8 8 8 8 7 7 7 6 7 7 6 7 6 6 6 7 6 6 5 5 6 5 5 5
6 2 2 2 3 6 3 1 1 3 3 5 0 4 4 4 8 5 4 0 3 3 3 3 2 2 2 6 8 7 8 8 6 8 7 6 8 8 6 7 7 7 7 7 8 8 8 7 5 4 3 4 6 6 8 9 8 8 9 10 10 8 8 8 7 7 4 2 2 5 5 5 5 5 5 5 4 4 4 4 5 5 4 4 5 4
2 1 4 3 5 4 2 2 3 1 4 6 8 4 6 1 1 4 5 4 5 5 5 5 6 7 9 11 11 11 11 12 10 9 10 9 8 8 7 7 7 7 7 8 7 7 7 8 7 5 4 4 5 7 9 10 10 11 12 10 8 8 9 9 7 4 6 7 5 4 5 4 3 4 4 5 4 2 2 3 3 3 3 3 4 4
3 7 7 3 4 2 1 3 4 1 2 3 7 8 6 4 1 4 6 3 6 10 3 2 6 13 12 13 12 13 12 11 10 8 9 9 8 8 9 9 10 9 8 7 8 8 7 7 6 5 4 5 4 6 8 10 11 10 6 4 4 4 5 6 7 7 7 7 7 7 7 7 7 7 7 4 2 4 6 4 3 3 3 3 3 3
3 4 3 1 4 4 7 6 6 2 3 3 5 8 11 8 2 4 0 1 3 6 7 6 11 11 11 14 12 11 12 11 11 9 8 9 9 9 9 10 9 9 8 9 8 7 7 6 3 4 4 4 5 5 5 6 5 0 3 3 4 4 4 4 5 5 5 5 3 1 2 1 2 3 4 5 6 6 3 4 4 3 3 3 3 3
4 2 1 2 2 7 10 8 4 5 1 5 11 11 9 7 8 6 5 4 3 1 4 8 10 2 4 11 11 11 9 10 9 8 8 9 11 9 10 9 10 8 8 9 8 9 6 5 3 3 5 5 5 4 4 4 4 4 4 2 2 3 3 6 5 6 6 4 5 4 4 4 4 4 4 2 1 1 1 1 2 3 3 3 3 3
2 0 2 2 2 5 9 13 8 5 5 9 11 13 14 10 4 6 3 2 3 5 5 10 9 4 0 6 11 9 8 7 9 10 8 8 9 10 10 9 8 8 7 7 6 5 4 4 4 4 6 7 6 6 5 5 5 4 4 4 3 5 5 5 3 3 4 4 4 2 4 6 4 5 4 2 3 2 1 0 1 4 5 3 2 2
5 1 1 1 5 5 6 12 11 5 3 11 15 16 15 12 8 6 4 3 1 4 5 7 6 5 4 11 10 11 11 11 11 9 8 7 8 9 10 9 8 8 8 7 6 5 4 4 5 5 6 6 6 7 6 6 6 6 3 5 6 6 6 6 5 5 6 7 6 6 5 6 7 6 4 4 4 4 4 4 3 0 3 1 1 1
1 2 2 1 5 1 3 6 9 6 7 9 11 10 7 4 3 1 2 8 7 1 4 4 2 1 8 12 14 10 11 9 9 9 9 7 6 8 10 9 8 7 8 7 7 6 4 5 5 5 6 5 5 6 6 7 8 7 7 8 8 8 9 8 7 8 7 7 8 8 7 8 9 8 5 6 6 5 5 6 6 4 3 3 3 3
1 4 2 1 4 2 7 9 6 6 7 2 2 3 2 4 5 5 3 4 6 4 2 3 3 5 7 11 14 13 12 11 10 5 3 9 10 9 8 8 7 7 7 6 7 7 5 4 4 6 7 7 7 8 7 7 9 7 7 8 8 10 9 9 9 8 8 9 8 7 6 7 6 6 6 5 5 5 6 6 6 3 3 4 4 5
2 2 1 1 1 1 3 6 8 3 1 2 2 4 3 1 3 4 4 4 6 6 6 6 5 9 4 4 8 8 7 7 6 8 8 6 8 9 10 8 8 8 7 7 6 5 5 5 5 7 8 8 7 6 6 7 7 7 9 10 11 10 11 10 10 10 9 9 8 7 7 7 7 6 6 6 6 5 5 6 5 4 3 3 3 3
2 3 2 3 2 2 3 4 3 3 2 4 1 4 5 1 5 1 1 6 7 4 2 7 4 5 8 9 8 8 10 9 8 6 6 5 5 11 11 9 8 9 9 6 7 6 6 6 6 7 7 5 7 7 7 8 8 9 10 8 10 9 9 8 9 8 8 8 7 8 7 7 7 7 7 7 7 7 5 5 4 2 1 2 2 1
5 3 3 2 0 3 2 6 4 3 2 5 4 6 6 4 6 2 1 4 3 4 2 8 8 7 10 9 10 10 10 10 9 5 5 5 5 4 8 8 7 7 8 6 7 7 7 7 6 6 7 8 8 8 8 8 9 9 8 10 8 10 9 9 9 8 8 7 7 7 7 7 7 7 6 5 6 7 7 6 5 3 2 1 2 2
2 1 2 4 0 4 6 4 2 1 2 3 2 3 2 3 3 3 1 3 3 5 2 7 11 10 10 10 11 11 10 12 7 3 2 4 5 9 6 7 7 7 7 7 7 8 7 7 7 7 9 9 8 7 7 8 9 10 10 9 9 9 9 9 7 7 8 7 7 8 7 7 6 6 6 6 7 6 5 4 3 4 4 3 2 1
5 7 5 5 2 2 4 5 2 5 4 2 5 6 4 1 3 1 2 4 3 2 3 7 10 8 10 12 12 11 9 8 6 4 3 5 6 7 10 8 9 8 7 7 8 8 7 6 9 8 9 9 9 6 7 8 10 10 8 8 8 8 9 8 7 7 7 6 7 6 6 6 7 6 6 7 6 5 5 5 4 3 4 3 3 2
9 7 6 7 4 2 3 4 1 2 2 2 4 6 8 3 1 3 3 4 2 3 2 6 10 11 10 9 7 3 4 9 8 7 5 5 5 5 9 11 10 10 9 8 8 7 6 5 8 10 10 9 7 5 7 9 10 9 8 7 7 9 8 6 5 5 5 6 6 7 7 6 7 7 7 7 6 6 5 4 4 5 4 4 4 4
5 3 6 3 1 3 5 0 1 2 2 3 4 9 9 2 3 3 3 3 2 2 0 4 7 9 12 11 9 9 5 5 8 7 9 8 9 7 5 6 8 10 11 10 8 7 8 7 8 8 7 6 6 5 5 8 9 8 7 7 9 8 5 4 4 6 6 6 7 7 7 6 7 7 7 6 5 5 6 6 6 5 7 6 5 6
2 1 1 3 5 2 0 2 1 2 4 3 7 7 4 0 1 1 2 2 1 2 2 1 5 2 0 4 3 3 6 9 12 10 9 7 9 8 8 9 9 8 7 8 10 9 9 8 8 8 8 7 7 6 6 8 9 7 7 7 8 5 3 4 6 6 7 8 7 7 7 7 6 6 5 6 6 8 7 6 6 6 6 6 7 8
1 1 0 1 1 1 4 4 2 1 1 2 10 4 3 3 1 2 3 3 3 2 1 0 1 1 2 2 4 7 8 12 14 14 13 10 10 11 11 10 10 10 10 10 8 8 10 8 8 8 7 6 7 6 6 8 9 6 6 8 5 3 4 5 6 7 8 7 7 6 6 6 7 6 5 6 6 6 7 6 6 6 6 7 7 7
1 2 0 2 4 2 1 1 1 2 3 3 3 2 2 0 2 3 2 4 2 4 4 4 2 2 2 4 6 6 7 10 6 6 9 9 8 7 7 7 7 7 7 6 9 8 10 10 8 8 6 5 5 5 5 8 8 6 8 7 3 4 5 6 7 7 7 6 6 5 5 5 5 5 5 6 5 6 6 6 5 6 6 6 6 6
3 0 4 2 2 1 1 2 2 3 4 4 1 2 3 4 2 2 3 3 4 2 4 4 5 4 5 6 4 5 5 4 7 5 5 6 5 6 8 8 8 8 8 9 9 7 9 11 10 9 8 6 6 6 6 6 9 8 8 3 4 6 6 6 7 7 7 7 6 6 5 5 6 6 6 6 6 6 6 6 5 5 5 5 5 5
0 1 1 2 1 2 2 4 2 2 2 5 2 2 2 4 3 1 0 3 4 3 2 6 5 6 7 7 8 3 4 7 9 9 8 8 6 4 3 6 6 5 6 8 7 7 8 9 9 9 9 7 6 6 6 6 7 8 4 2 4 5 6 6 7 6 6 5 6 6 6 6 6 7 6 6 5 5 5 5 5 5 4 4 4 4
1 1 1 0 0 3 1 1 3 2 2 3 4 3 0 1 2 2 4 2 4 5 0 4 8 8 9 8 9 8 7 8 10 9 8 7 7 6 5 5 5 4 6 8 6 7 7 8 8 8 8 8 4 6 6 7 6 6 5 5 5 5 6 6 6 6 5 5 5 5 5 6 5 5 5 6 5 4 4 5 4 4 5 4 4 5
1 2 2 0 1 1 1 1 1 2 2 2 1 4 4 6 5 4 1 2 3 3 1 1 3 8 9 10 12 12 9 8 13 10 10 9 8 8 7 6 6 5 3 4 5 6 7 7 8 7 7 7 4 5 5 5 5 5 5 5 5 5 6 6 5 6 5 5 4 4 5 5 8 7 4 5 5 5 5 5 5 4 4 4 4 4
1 1 1 2 1 3 3 2 3 1 1 2 2 0 0 1 2 4 5 6 6 6 4 3 1 2 3 8 8 11 11 7 9 12 13 10 9 10 11 8 5 6 4 4 4 6 8 7 7 7 7 6 4 5 5 5 4 4 5 4 4 5 6 5 5 5 5 4 4 4 5 4 3 3 3 3 4 4 3 4 5 4 4 4 3 4
1 2 1 1 1 2 4 2 3 1 1 1 1 1 0 0 3 5 5 7 5 5 4 2 2 2 3 5 8 9 12 10 9 8 11 10 10 9 10 11 9 10 8 5 3 5 7 7 9 8 7 5 4 4 5 5 4 4 4 4 4 5 5 4 4 5 4 3 3 3 4 3 3 3 3 2 3 3 3 5 5 3 3 3 6 8
3 5 4 3 5 2 4 6 3 2 2 4 2 1 2 1 1 5 4 2 1 2 4 3 1 2 4 3 4 8 8 9 10 8 8 7 9 9 10 10 9 8 8 7 6 6 8 8 8 8 7 6 5 5 4 4 4 4 4 4 4 5 5 4 3 3 3 3 3 3 3 3 2 2 2 2 2 2 2 3 3 5 6 4 6 5
Wind_Direction
151 140 173 195 206 184 213 183 178 205 119 125 124 159 167 160 103 153 160 161 169 163 184 163 159 195 189 185 177 173 173 183 181 185 178 183 177 176 178 182 184 188 194 187 184 178 174 169 167 162 163 164 162 160 159 159 165 161 164 160 174 170 162 155 156 161 160 151 141 114 172 177 175 174 169 169 162 173 177 175 174 177 189 193 188 174
88 165 235 214 166 177 202 198 154 71 52 108 114 147 186 154 154 190 154 169 173 162 165 149 178 189 191 182 171 172 172 194 186 186 185 184 188 181 180 183 187 188 176 173 177 180 173 167 163 155 159 159 160 173 164 167 173 168 163 172 170 157 165 167 169 173 171 166 172 156 180 165 152 160 167 174 187 180 178 173 178 185 180 185 186 173
146 205 235 218 185 140 95 171 208 168 109 56 142 140 118 158 145 25 116 167 177 122 153 153 166 188 192 180 153 178 192 195 196 189 183 178 185 185 187 186 181 170 177 177 182 176 177 171 166 160 165 172 174 169 173 173 167 167 169 177 166 167 168 171 169 162 176 179 165 158 163 158 135 175 159 151 146 163 170 179 184 189 182 173 173 154
145 271 233 208 134 129 73 134 118 84 67 114 81 91 187 197 141 147 76 119 33 59 177 172 150 176 192 171 183 203 189 187 182 199 199 176 182 191 192 186 181 180 173 179 178 179 176 172 172 164 170 174 168 168 169 172 174 174 175 176 170 172 167 165 177 169 177 164 165 138 138 146 120 167 142 119 109 140 146 187 187 202 187 180 176 174
187 190 142 141 147 148 145 182 129 130 198 310 168 140 131 168 207 143 161 136 113 93 147 146 112 235 210 186 160 192 206 182 176 185 224 288 210 221 187 193 190 183 178 177 177 177 173 172 178 178 178 163 169 174 174 176 179 182 180 179 174 173 171 166 176 169 157 125 86 71 67 73 63 59 84 108 131 177 186 176 190 208 191 193 188 180
259 257 149 109 111 121 121 139 185 130 199 317 230 191 186 181 145 105 128 133 137 145 179 154 129 224 201 206 175 169 191 202 175 188 210 210 224 203 194 194 188 190 184 177 179 178 175 175 177 183 167 170 176 178 181 178 181 180 182 175 172 167 166 167 173 163 155 157 149 131 133 143 122 128 141 180 190 188 190 202 188 182 186 190 196 182
203 252 152 164 146 121 126 165 229 145 164 122 272 184 171 161 140 140 147 128 163 187 186 193 150 253 302 217 201 175 179 191 175 196 204 207 209 209 205 191 185 181 188 186 176 174 173 177 176 180 177 182 182 189 175 174 179 183 180 176 172 172 171 167 165 162 162 161 164 166 171 170 172 173 212 198 189 182 196 177 181 193 185 191 187 194
122 87 81 83 118 119 106 198 257 143 124 235 240 154 157 144 153 165 156 151 147 73 143 187 98 146 273 231 140 179 179 193 190 191 199 205 213 209 206 198 186 184 181 181 181 179 179 176 177 181 187 184 192 180 166 174 175 179 181 176 175 173 169 169 161 166 169 168 172 165 169 175 174 183 194 190 187 167 161 179 195 180 196 187 194 196
164 193 160 136 104 140 186 202 199 154 141 214 216 157 157 172 170 156 148 132 129 126 171 216 128 45 256 275 137 183 189 197 202 189 194 201 205 206 206 203 190 187 181 177 181 183 181 180 182 182 185 192 181 170 175 179 183 180 176 175 171 172 168 165 168 167 171 166 169 169 165 173 198 194 191 165 154 158 165 178 180 190 198 194 203 205
286 195 203 169 157 216 211 204 165 167 191 270 163 54 67 68 66 77 69 79 27 44 208 203 180 144 289 178 163 176 225 218 203 195 198 198 199 198 200 203 193 182 182 181 185 185 184 183 184 186 184 178 183 182 181 180 173 174 168 172 172 176 172 165 173 173 165 155 156 158 167 172 189 183 125 140 164 165 168 183 193 185 191 197 195 207
240 308 163 122 186 205 184 195 168 181 193 113 79 77 62 56 60 49 56 53 72 358 256 189 196 138 271 212 186 171 214 207 180 188 196 197 200 199 201 197 191 182 179 178 183 190 187 184 183 178 180 185 177 175 175 176 178 174 173 175 178 183 173 168 175 175 171 162 159 162 168 175 181 183 159 148 163 147 158 193 196 194 201 190 199 189
324 326 170 238 181 191 156 171 209 196 187 159 94 127 95 31 30 39 13 41 91 258 265 177 182 125 190 290 219 225 13 163 180 185 180 190 196 197 197 198 192 179 172 173 172 182 185 181 185 180 181 178 177 169 177 181 175 177 179 175 179 180 180 179 178 178 173 169 169 163 165 176 183 172 177 185 187 187 191 192 200 186 173 204 189 200
293 246 229 252 212 174 132 172 350 112 128 135 109 119 109 154 50 346 20 83 206 216 297 159 138 46 254 224 215 219 236 234 185 183 184 186 189 193 194 192 179 171 155 166 171 170 175 180 182 184 183 174 171 180 182 181 179 180 178 178 177 187 184 185 181 185 179 174 175 168 168 180 179 178 185 194 192 191 192 192 190 175 202 181 202 216
275 271 217 232 284 190 139 161 206 94 188 140 150 148 107 109 100 151 291 359 314 289 222 150 168 217 261 297 197 235 242 217 192 180 183 183 185 186 185 177 152 144 151 162 172 176 179 180 183 182 178 181 184 183 182 179 178 180 182 181 184 191 186 185 187 188 183 186 180 172 169 176 178 187 190 196 196 194 197 188 196 195 193 194 206 198
132 261 270 167 221 183 169 174 174 167 163 190 135 155 163 139 158 164 192 171 208 211 356 131 122 232 165 240 286 271 248 195 185 172 173 176 175 176 169 135 124 121 129 155 179 181 182 181 178 178 182 185 186 183 180 179 180 180 184 184 190 190 190 187 191 188 190 187 178 174 171 171 179 189 191 197 197 190 190 195 197 207 199 199 207 205
206 210 257 208 264 155 171 194 137 104 108 205 161 85 116 196 144 154 191 184 192 144 84 215 206 185 170 286 308 301 186 173 156 154 154 164 158 147 144 136 144 148 149 150 160 185 181 180 179 177 182 187 187 183 180 182 179 184 190 191 193 192 189 190 188 192 190 186 171 167 172 182 184 190 189 192 193 197 194 194 197 207 206 213 209 209
15 298 266 316 111 162 197 141 193 143 191 212 115 173 208 172 121 82 28 9 90 56 236 127 324 315 299 0 2 20 75 128 143 148 157 161 159 157 160 138 152 165 158 141 147 151 168 174 184 185 183 183 185 183 185 186 186 189 187 190 196 197 191 189 190 188 184 173 173 181 179 178 186 188 183 185 189 190 194 193 200 203 211 211 204 202
138 255 291 127 225 243 199 167 186 192 139 99 141 223 115 76 97 123 169 341 78 146 236 93 234 304 21 242 343 21 64 81 140 154 158 163 159 163 163 158 155 168 177 164 144 134 156 172 181 185 188 183 186 189 192 193 193 191 189 189 190 188 189 195 188 183 180 181 187 185 183 184 187 192 195 188 188 184 178 198 203 205 200 210 204 196
117 335 298 247 220 240 355 114 40 13 102 150 191 170 131 192 227 311 105 125 136 218 235 307 231 253 177 246 11 18 31 123 127 140 150 157 166 158 166 173 173 162 176 178 174 150 147 166 176 184 184 181 192 200 199 198 190 184 185 181 178 191 201 193 187 184 185 187 193 190 190 185 188 193 192 189 181 171 182 193 198 201 211 213 205 194
20 176 297 298 132 310 34 101 194 205 15 51 100 128 227 118 149 139 204 168 116 204 74 282 56 234 209 204 177 145 209 156 137 141 150 151 148 146 158 170 175 174 186 177 163 144 159 158 155 153 154 168 178 177 159 146 133 129 135 141 145 139 139 157 190 190 190 192 193 194 185 189 188 188 189 184 172 177 189 200 198 205 205 213 199 205
236 129 245 282 295 60 159 349 187 165 148 75 65 118 222 32 213 109 40 109 161 162 188 157 258 267 265 208 195 165 182 162 138 128 126 135 144 148 159 164 170 177 183 184 163 155 146 121 92 91 122 146 132 133 137 149 152 148 148 160 168 166 161 165 179 182 195 181 193 186 189 192 190 195 191 178 180 184 199 204 206 205 214 191 210 201
49 13 227 316 13 16 236 238 188 176 172 157 152 184 166 126 123 134 220 26 96 109 179 149 233 265 269 262 222 146 150 144 139 129 128 136 135 128 136 140 150 161 150 138 145 145 137 118 105 97 96 108 120 137 147 151 149 158 163 174 183 181 169 166 180 184 183 186 186 191 194 195 193 190 185 190 191 195 194 200 205 210 196 201 212 189
140 161 60 304 163 131 119 333 304 199 168 149 128 175 157 123 111 100 144 234 56 36 90 130 132 286 258 279 131 128 143 130 121 121 128 127 116 125 134 122 81 86 115 116 121 125 113 107 108 113 115 118 135 154 153 145 158 166 168 174 183 187 185 181 183 181 175 180 187 198 197 190 191 187 190 195 197 199 195 194 204 201 205 208 208 196
137 47 10 297 318 304 314 315 322 107 101 54 21 50 81 138 168 167 176 176 133 165 87 11 131 249 299 61 72 69 99 101 110 135 125 109 115 124 115 111 108 105 100 111 106 99 97 100 111 121 131 139 149 159 161 136 122 118 123 142 184 218 193 187 184 185 180 178 185 188 183 191 190 190 193 197 199 202 201 199 199 197 211 215 209 204
52 341 104 352 40 351 343 347 7 347 51 82 31 305 341 87 73 122 101 59 108 203 169 140 206 255 267 77 102 120 121 117 116 110 123 123 116 109 110 97 94 100 105 111 109 107 99 95 112 138 153 155 153 154 132 107 118 137 165 189 196 192 164 198 204 198 174 168 174 175 180 190 186 191 194 200 199 206 200 198 199 200 209 212 219 216
76 330 77 100 140 137 142 47 308 321 309 299 345 346 352 118 136 110 115 75 108 211 123 140 213 258 121 134 132 137 125 110 104 115 97 99 109 108 99 100 96 95 97 93 89 84 83 92 100 111 121 141 150 136 119 131 167 177 182 198 198 168 164 197 206 207 159 57 168 171 179 188 184 187 187 195 197 206 202 195 200 198 209 205 222 228
102 53 63 107 135 164 196 232 266 314 352 29 317 3 325 2 64 95 103 107 172 175 182 230 163 150 163 158 156 156 145 138 130 125 122 114 109 101 100 94 88 85 85 89 87 86 88 91 99 105 100 95 105 134 147 161 183 196 197 189 173 169 170 170 179 156 142 160 186 184 172 146 109 75 45 15 351 305 225 222 205 195 200 195 210 216
68 60 355 54 71 52 253 218 266 305 84 16 19 345 336 321 159 104 133 209 161 104 250 262 175 151 180 167 164 161 155 140 137 130 125 119 114 111 109 102 95 92 89 88 87 88 95 111 130 127 110 106 115 135 158 180 188 198 200 157 170 163 151 150 147 147 168 175 177 170 176 167 154 138 131 124 74 340 317 302 262 235 225 201 206 216
115 88 313 341 9 26 34 23 18 29 93 84 38 23 5 337 48 115 158 139 124 140 194 200 169 176 177 170 158 159 155 141 141 135 123 119 113 113 111 108 104 101 97 94 97 102 112 123 115 102 91 88 103 120 149 173 183 41 250 203 181 154 138 136 132 129 117 111 90 325 311 23 67 92 134 163 168 178 198 284 292 274 247 229 226 227
86 73 236 308 343 21 18 9 12 50 337 43 33 23 12 15 45 69 72 39 61 267 233 162 153 134 160 157 145 144 142 136 133 123 124 125 127 121 115 111 113 111 103 104 107 116 115 114 86 81 90 80 79 82 87 78 100 130 171 168 140 171 128 109 114 130 125 147 173 171 142 133 106 93 77 67 355 339 242 179 278 287 265 247 236 237
101 215 16 293 59 351 0 355 12 31 37 40 19 20 16 1 33 55 82 32 53 36 63 121 120 113 325 128 126 132 134 116 122 131 128 126 125 120 114 112 109 110 104 105 105 103 99 101 89 79 77 79 78 75 65 65 86 126 157 148 87 56 73 99 130 107 113 134 147 132 122 139 148 131 132 166 154 164 178 102 10 305 289 271 255 234
55 177 52 99 71 329 357 352 331 8 61 43 20 9 5 360 10 356 28 322 92 134 108 94 122 166 180 134 130 141 140 144 140 130 126 128 122 121 118 114 118 119 117 117 114 113 114 100 90 75 70 67 72 73 64 59 69 86 67 59 71 75 94 97 71 80 100 129 132 128 127 131 126 113 121 131 111 88 69 75 86 318 276 318 15 35
26 114 80 32 94 263 305 349 335 0 30 25 6 343 341 331 296 291 26 31 43 76 102 141 272 327 158 145 140 150 147 145 135 138 130 123 123 122 122 124 124 119 114 117 115 114 103 84 78 73 66 58 52 59 60 72 63 51 55 57 60 64 64 65 74 81 75 67 78 81 91 95 102 108 111 109 103 97 97 87 72 39 357 27 61 77
36 85 83 338 125 219 340 352 357 47 51 347 285 300 2 18 339 39 18 8 8 51 218 220 231 148 155 153 152 157 149 152 150 142 123 138 132 120 113 117 116 115 111 105 108 109 104 80 70 74 77 73 65 66 61 68 78 73 75 78 67 67 60 67 60 61 57 53 47 46 53 69 83 94 98 94 87 81 76 74 78 71 39 17 28 46
81 69 68 142 101 166 356 28 38 26 229 230 283 347 331 113 61 121 106 47 17 16 49 56 94 126 112 100 122 122 122 111 106 123 121 122 122 121 125 122 124 121 113 114 114 110 102 99 87 81 74 68 67 66 70 63 65 69 65 69 75 66 65 57 58 54 57 57 50 49 51 53 55 57 53 58 61 65 70 78 71 40 25 51 40 37
44 92 161 46 88 52 56 74 92 234 259 297 281 17 353 90 8 41 78 42 16 15 64 81 48 77 95 102 102 112 115 107 85 61 84 92 117 133 131 136 135 126 122 127 122 111 111 102 102 95 85 67 71 63 60 68 64 68 68 62 68 72 75 70 62 61 59 60 56 50 49 62 61 56 54 52 51 47 44 52 83 107 352 67 72 47
124 101 85 100 25 150 212 141 184 302 335 9 13 3 11 5 333 8 10 306 356 348 35 120 99 93 98 101 113 116 115 104 89 48 26 78 91 88 121 129 127 119 117 111 104 101 103 106 99 92 83 74 68 74 73 76 73 61 58 63 60 64 59 60 60 51 50 48 43 49 52 54 55 54 50 53 65 59 38 30 23 9 324 36 74 77
65 66 217 99 311 111 124 62 16 38 263 280 231 266 254 259 261 240 129 309 350 360 78 119 121 122 117 120 124 126 119 105 107 97 46 73 105 108 87 98 96 94 89 88 87 92 95 99 95 86 91 83 69 71 79 79 81 80 66 57 57 58 57 51 46 44 49 45 31 25 28 38 48 51 44 41 41 44 45 31 10 357 346 355 356 33
21 76 99 111 143 46 55 119 174 165 229 215 297 297 302 228 255 200 57 334 299 334 70 116 113 115 128 138 141 142 132 129 162 186 179 132 129 126 119 115 107 100 97 97 101 96 87 85 100 97 91 84 80 70 77 76 75 71 65 61 59 58 55 48 36 33 40 44 44 35 21 23 38 41 41 42 35 31 34 25 15 344 337 349 356 4
25 3 25 41 38 85 140 86 119 208 73 327 277 305 315 14 77 66 42 293 280 312 99 123 131 136 132 130 136 103 131 147 172 192 181 145 131 134 134 130 118 109 99 93 82 86 77 77 84 80 80 78 80 85 85 83 79 72 67 60 61 58 52 42 35 27 40 40 42 44 38 30 37 37 39 39 39 36 38 21 23 9 12 15 20 32
354 349 43 104 128 29 70 139 1 327 300 292 294 308 315 317 82 84 178 244 275 295 301 139 149 153 146 142 155 165 210 178 160 140 132 137 120 105 94 102 116 122 122 115 105 94 82 65 69 71 69 64 69 64 68 85 79 73 71 63 58 54 48 37 46 55 52 49 45 40 38 35 36 37 40 40 42 44 43 31 30 23 29 25 23 38
348 106 349 64 35 28 335 98 202 232 242 269 299 290 269 356 86 193 241 202 255 304 315 157 159 165 21 149 123 101 145 136 126 135 140 140 129 129 127 123 112 99 99 110 119 111 97 88 80 76 63 54 63 63 68 81 83 80 74 65 57 43 29 57 62 65 60 55 49 47 41 38 39 39 40 39 41 45 43 31 33 33 29 25 29 31
224 91 246 86 194 60 42 62 27 82 281 59 321 355 15 79 229 219 270 279 197 201 169 311 151 255 87 79 105 136 138 139 144 147 147 145 146 148 144 137 134 133 128 118 107 112 113 99 87 76 73 60 56 62 73 83 81 73 65 62 41 21 58 67 67 66 65 59 54 51 49 44 41 37 32 38 39 45 42 28 32 31 30 32 34 33
202 84 264 280 189 139 94 119 179 212 248 302 30 105 327 122 287 246 194 294 236 181 171 160 161 155 91 123 140 144 149 139 113 126 130 131 136 134 128 120 115 113 104 96 108 111 102 101 98 91 73 70 71 70 67 87 85 72 64 43 354 57 72 70 69 70 64 61 58 55 52 52 50 45 37 37 39 48 47 37 35 37 35 30 34 34
240 154 177 129 222 117 197 208 249 241 238 273 203 235 243 274 292 225 206 245 284 270 190 156 160 116 126 124 101 113 98 88 110 95 112 112 117 134 141 138 134 132 128 123 118 109 105 112 109 99 71 48 55 54 66 75 90 81 72 25 31 57 68 68 67 64 55 51 41 38 32 43 45 36 35 31 31 40 37 37 33 42 28 35 37 39
292 196 181 92 243 265 249 204 276 318 354 331 292 244 271 331 334 57 344 300 268 253 197 157 146 125 125 131 122 95 126 137 124 118 108 100 102 71 74 98 96 99 106 108 105 102 106 106 104 101 94 72 68 74 73 72 83 86 85 64 67 76 83 80 74 65 57 50 41 30 27 41 37 32 30 32 29 35 35 39 31 37 34 39 44 49
269 142 105 132 313 76 195 323 14 332 309 337 334 326 216 34 330 327 4 350 302 333 35 138 140 136 133 129 126 133 140 137 121 117 113 107 109 109 99 92 92 112 126 118 120 116 109 107 103 101 101 97 75 85 79 79 75 99 108 86 86 85 85 84 81 78 65 53 46 42 37 39 50 35 28 28 28 28 31 33 35 29 28 25 30 32
324 171 73 122 104 124 243 226 250 272 235 275 313 17 359 342 349 19 18 7 356 6 39 100 125 133 142 142 150 147 155 156 136 141 138 139 134 124 116 115 119 102 81 111 123 117 111 110 113 114 112 113 120 100 92 83 83 79 76 74 79 93 90 85 86 84 77 62 43 56 57 42 49 49 28 26 25 19 12 18 18 25 18 11 11 19
177 116 230 170 146 278 306 315 281 259 318 337 333 271 254 270 352 30 32 39 38 38 19 16 34 143 153 153 155 150 154 172 158 151 145 147 145 138 132 124 131 129 130 142 156 139 133 131 126 130 125 132 140 111 98 99 89 77 75 68 64 81 84 84 82 85 74 64 60 51 61 61 55 48 48 30 30 16 353 10 357 351 349 335 4 12
90 225 155 88 344 298 218 234 136 101 288 267 295 259 328 207 115 66 37 36 37 43 26 50 26 69 119 149 159 158 150 151 160 164 154 155 152 147 143 146 161 155 166 176 167 143 136 140 141 138 138 154 158 121 114 109 97 83 92 93 85 78 81 82 76 63 49 54 49 50 69 63 58 54 50 47 24 13 359 15 337 318 326 344 345 342
172 212 139 160 159 237 249 234 199 143 180 224 195 246 260 280 81 87 86 89 45 130 112 83 44 90 142 156 158 157 160 160 159 154 147 152 155 157 150 151 159 166 168 171 152 157 151 153 147 142 144 159 161 138 131 108 83 75 58 74 80 92 91 84 75 62 41 31 358 16 55 50 39 44 76 53 29 1 359 340 332 305 296 279 292 305